{"data":{"norad_id":60126,"epoch":"2026-09-21T05:41:30.109056Z","epoch_age_seconds":117831,"freshness":"FRESH","line1":"1 60126U 24118P   26264.23715404  .00000891  00000+0  40476-4 0  9999","line2":"2 60126  53.1601 197.1418 0001383  84.2516 275.8643 15.31707772125659","mean_motion":15.31707772,"eccentricity":0.0001383,"inclination_deg":53.1601,"raan_deg":197.1418,"arg_perigee_deg":84.2516,"mean_anomaly_deg":275.8643,"bstar":4.0476e-5,"rev_number":12565,"period_min":94.012710931129,"perigee_km":469.7696309117,"apogee_km":471.66402388036,"semimajor_km":6848.853827396,"source":"CELESTRAK","updated_at":"2026-09-22T09:00:49.157420Z"}}